User: anonymous   Login
Location: Béaulencourt
(50.0796°N, 2.8795°E)
Time: 06:05:27
(UTC+00:00)
Language:

Cosmos 371 Rocket - Orbit

View from above orbital plane
View from above orbital plane
View from above satellite
View from above satellite

Ground track
Ground track

The orbit is defined by the following mean orbital elements,

1 04579U          26074.80163488 +.00000000 +00000-0 +94962-4 0 00009
2 04579  73.9995  94.3477 0009210  30.9419 329.2289 14.63602658    07
Epoch (UTC): 15 March 2026 19:14:21
Eccentricity: 0.0009210
inclination: 73.9995°
perigee height: 675 km
apogee height: 688 km
right ascension of ascending node: 94.3477°
argument of perigee: 30.9419°
revolutions per day: 14.63602658
mean anomaly at epoch: 329.2289°

The dashed part of the orbit path shows where the satellite is in the earth's shadow,  

DLR